DELTA 1 DEB, 10657

Orbit data source: Space-Track

DELTA 1 DEB, 10657 is space debris in SSO originally from a launch on Thu, 29 Jul 1976 UTC launched from the Air Force Western Test Range (AFWTR). Debris objects in space refer to the collection of defunct objects orbiting the Earth. Examples of debris include non-operational satellites, rocket bodies, and fragments generated from explosions, collisions, or faulty payload assembly.

Loading next visibility...
Identifier
10657, 1976-077T
Orbit
SSO
Country
Flag of USUS
Related business
Manufacturer
Unknown
Mission
Spacecraft
Bus & Motor
Unknown
Mass
Unknown
Launch date (UTC)
1976-07-29 (50 years ago)
Launch vehicle
Unknown
Launch site
Air Force Western Test Range (AFWTR)
Object type
Payload
Rocket body
Debris
Shape & HBR
Unknown shape, 0.6 m
Radar Cross Section
Medium (>0.1 m² and <1 m²)

Expand to show TLE details & history
Last TLE update: 11 hours ago

TLE from 11 hours ago
0 DELTA 1 DEB
1 10657U 76077T   26034.54283922 -.00000042  00000-0  39876-4 0  9990
2 10657 102.5901  18.0216 0083413 293.8077 186.5727 12.25774198215923
Epoch: 2026-02-03T13:01Z
TLE epoch observation values (Epoch: 2026-02-03T13:01:41.308Z)
Latitude
57.53687°
Longitude
-110.6726°
Altitude
1,642.781 km
Speed
7.027 km/s
True Right ascension
14h 33m 53s
True Declination
57° 23' 53"
Sunlit
Object was in daylight at epoch
Visualization orbit readout
Latitude
Unknown
Longitude
Unknown
Altitude
Unknown
Speed
Unknown
Apparent Right ascension
Unknown
Apparent Declination
Unknown
Sunlit
N/A
Visualization observer readout
Local Sidereal Time
01:44:57
Azimuth
Unknown
Elevation
Unknown
Doppler factor
Unknown
Orbital elements
Apogee altitude
1,631.376 km
Perigee altitude
1,498.862 km
Semi-major axis
7,943.256 km
Eccentricity
0.00834
Inclination
102.5901°
RAAN
18.0216°
Arg. of periapsis
293.8077°
True anomaly
186.46441°
Mean anomaly
186.5727°
Eccentric anomaly
186.51844°
Mean motion
3.06581 °/min
Orbital period
117.42 mins
BSTAR
0.000039876
Loading maneuver chart data...
Computing Atmospheric mass density...
Loading historical data...
Loading historical data...
Loading historical data...
Loading historical data...
Loading historical data...
Loading historical data...
Loading historical data...

Documentation

Showing up to 5 results
|